TimeCDT,TemperatureF,Dew PointF,Humidity,Sea Level PressureIn,VisibilityMPH,Wind Direction,Wind SpeedMPH,Gust SpeedMPH,PrecipitationIn,Events,Conditions,WindDirDegrees,DateUTC
12:54 AM,70.0,52.0,53,29.78,10.0,South,8.1,-,N/A,,Clear,180,2013-05-14 05:54:00
1:54 AM,66.9,53.1,61,29.77,10.0,South,4.6,-,N/A,,Clear,180,2013-05-14 06:54:00
2:54 AM,64.9,53.1,65,29.75,10.0,South,6.9,-,N/A,,Clear,180,2013-05-14 07:54:00
3:54 AM,62.1,53.1,72,29.74,10.0,SSE,4.6,-,N/A,,Clear,150,2013-05-14 08:54:00
4:54 AM,61.0,53.1,75,29.74,10.0,SSE,9.2,-,N/A,,Clear,160,2013-05-14 09:54:00
5:54 AM,59.0,52.0,78,29.73,9.0,SSE,11.5,-,N/A,,Clear,150,2013-05-14 10:54:00
6:54 AM,60.1,53.1,78,29.73,5.0,SE,8.1,-,N/A,,Haze,140,2013-05-14 11:54:00
7:54 AM,68.0,55.9,65,29.72,7.0,SSE,10.4,-,N/A,,Clear,160,2013-05-14 12:54:00
8:54 AM,73.9,57.9,57,29.70,9.0,South,11.5,-,N/A,,Clear,180,2013-05-14 13:54:00
9:54 AM,81.0,55.0,41,29.68,10.0,SSW,10.4,-,N/A,,Clear,210,2013-05-14 14:54:00
10:54 AM,89.1,55.0,31,29.66,10.0,SSW,12.7,-,N/A,,Clear,200,2013-05-14 15:54:00
11:54 AM,95.0,53.1,24,29.64,10.0,South,15.0,-,N/A,,Clear,190,2013-05-14 16:54:00
12:54 PM,102.9,46.0,15,29.60,10.0,SW,20.7,32.2,N/A,,Clear,220,2013-05-14 17:54:00
1:54 PM,107.1,39.0,10,29.58,10.0,SSW,24.2,35.7,N/A,,Clear,210,2013-05-14 18:54:00
2:54 PM,104.0,35.1,9,29.56,10.0,SW,27.6,39.1,N/A,,Clear,220,2013-05-14 19:54:00
3:54 PM,104.0,35.1,9,29.55,10.0,SW,20.7,33.4,N/A,,Clear,230,2013-05-14 20:54:00
4:24 PM,100.4,35.6,11,29.60,9.0,WSW,25.3,32.2,N/A,Thunderstorm,Clear,250,2013-05-14 21:24:00
4:43 PM,100.4,37.4,11,29.60,10.0,SW,18.4,46.0,N/A,,Partly Cloudy,220,2013-05-14 21:43:00
4:54 PM,100.0,39.0,12,29.55,10.0,WSW,24.2,33.4,N/A,,Partly Cloudy,240,2013-05-14 21:54:00
5:54 PM,102.0,39.9,12,29.56,10.0,SW,19.6,23.0,N/A,,Clear,220,2013-05-14 22:54:00
6:54 PM,99.0,42.1,14,29.57,10.0,SW,8.1,26.5,N/A,,Clear,220,2013-05-14 23:54:00
7:54 PM,93.9,48.0,21,29.59,10.0,North,6.9,-,N/A,,Clear,360,2013-05-15 00:54:00
8:54 PM,87.1,44.1,22,29.63,10.0,North,19.6,-,N/A,,Clear,350,2013-05-15 01:54:00
9:54 PM,80.1,39.9,24,29.68,10.0,North,11.5,-,N/A,,Clear,360,2013-05-15 02:54:00
10:54 PM,75.9,37.9,25,29.70,10.0,North,9.2,-,N/A,,Clear,360,2013-05-15 03:54:00
11:54 PM,68.0,39.9,36,29.73,9.0,Calm,Calm,-,N/A,,Clear,0,2013-05-15 04:54:00